TimeCDT,TemperatureF,Dew PointF,Humidity,Sea Level PressureIn,VisibilityMPH,Wind Direction,Wind SpeedMPH,Gust SpeedMPH,PrecipitationIn,Events,Conditions,WindDirDegrees,DateUTC
12:15 AM,74.3,72.1,93,30.01,10.0,Calm,Calm,-,N/A,,Mostly Cloudy,0,2013-08-10 05:15:00
12:35 AM,74.3,72.0,92,30.01,10.0,Calm,Calm,-,N/A,,Overcast,0,2013-08-10 05:35:00
12:55 AM,73.8,71.6,93,30.01,7.0,Calm,Calm,-,N/A,,Mostly Cloudy,0,2013-08-10 05:55:00
1:15 AM,73.6,71.8,94,30.01,7.0,Calm,Calm,-,N/A,,Scattered Clouds,0,2013-08-10 06:15:00
1:35 AM,73.6,71.6,93,30.01,10.0,Calm,Calm,-,N/A,,Clear,0,2013-08-10 06:35:00
1:55 AM,73.8,71.8,93,30.00,10.0,Calm,Calm,-,N/A,,Clear,0,2013-08-10 06:55:00
2:15 AM,72.9,71.1,94,30.00,7.0,Calm,Calm,-,N/A,,Clear,0,2013-08-10 07:15:00
2:35 AM,72.7,71.1,95,30.00,7.0,Calm,Calm,-,N/A,,Scattered Clouds,0,2013-08-10 07:35:00
2:55 AM,72.5,70.7,94,29.99,7.0,Calm,Calm,-,N/A,,Mostly Cloudy,0,2013-08-10 07:55:00
3:15 AM,72.5,70.7,94,29.99,7.0,Calm,Calm,-,N/A,,Overcast,0,2013-08-10 08:15:00
3:35 AM,72.1,70.7,95,29.99,5.0,Calm,Calm,-,N/A,,Overcast,0,2013-08-10 08:35:00
3:55 AM,72.3,70.7,95,29.99,5.0,Calm,Calm,-,N/A,,Overcast,0,2013-08-10 08:55:00
4:15 AM,72.7,71.2,95,30.00,4.0,Calm,Calm,-,N/A,,Overcast,0,2013-08-10 09:15:00
4:35 AM,72.1,70.9,96,29.99,4.0,Calm,Calm,-,N/A,,Overcast,0,2013-08-10 09:35:00
4:55 AM,72.5,71.2,96,29.99,4.0,Calm,Calm,-,N/A,,Overcast,0,2013-08-10 09:55:00
5:15 AM,71.4,70.0,95,30.00,4.0,Calm,Calm,-,N/A,,Overcast,0,2013-08-10 10:15:00
5:35 AM,71.6,70.2,95,30.00,3.0,Calm,Calm,-,N/A,Thunderstorm,Overcast,0,2013-08-10 10:35:00
5:55 AM,72.7,71.4,96,30.01,4.0,Calm,Calm,-,N/A,,Mostly Cloudy,0,2013-08-10 10:55:00
6:15 AM,71.6,70.2,95,30.01,5.0,Calm,Calm,-,N/A,,Scattered Clouds,0,2013-08-10 11:15:00
6:35 AM,72.5,71.1,95,30.01,2.0,Calm,Calm,-,N/A,,Overcast,0,2013-08-10 11:35:00
6:55 AM,72.1,70.9,96,30.02,2.5,Calm,Calm,-,N/A,,Mostly Cloudy,0,2013-08-10 11:55:00
7:15 AM,72.7,71.6,96,30.02,2.5,Calm,Calm,-,N/A,,Overcast,0,2013-08-10 12:15:00
7:35 AM,75.2,73.8,95,30.03,4.0,Calm,Calm,-,N/A,Thunderstorm,Overcast,0,2013-08-10 12:35:00
7:55 AM,76.3,74.3,94,30.03,5.0,Calm,Calm,-,N/A,,Overcast,0,2013-08-10 12:55:00
8:15 AM,78.6,75.4,90,30.04,10.0,Calm,Calm,-,N/A,,Overcast,0,2013-08-10 13:15:00
8:35 AM,81.3,75.7,83,30.04,5.0,Calm,Calm,-,N/A,,Haze,0,2013-08-10 13:35:00
8:55 AM,83.8,76.1,77,30.05,10.0,East,3.5,-,N/A,,Scattered Clouds,100,2013-08-10 13:55:00
9:15 AM,84.9,76.1,75,30.05,10.0,Calm,Calm,-,N/A,,Mostly Cloudy,0,2013-08-10 14:15:00
9:35 AM,85.6,76.1,73,30.05,10.0,Calm,Calm,-,N/A,,Overcast,0,2013-08-10 14:35:00
9:55 AM,87.8,76.5,69,30.05,10.0,SE,3.5,-,N/A,,Overcast,130,2013-08-10 14:55:00
10:15 AM,87.3,74.7,66,30.05,10.0,East,3.5,-,N/A,,Overcast,100,2013-08-10 15:15:00
10:35 AM,86.7,74.3,66,30.06,10.0,Calm,Calm,-,N/A,,Overcast,0,2013-08-10 15:35:00
10:55 AM,88.7,73.0,60,30.06,10.0,Calm,Calm,-,N/A,,Overcast,0,2013-08-10 15:55:00
11:15 AM,90.7,71.4,53,30.06,10.0,East,3.5,-,N/A,,Overcast,100,2013-08-10 16:15:00
11:35 AM,89.4,72.7,58,30.06,10.0,NNE,3.5,-,N/A,,Overcast,20,2013-08-10 16:35:00
11:55 AM,89.6,73.2,58,30.05,10.0,Calm,Calm,-,N/A,,Mostly Cloudy,0,2013-08-10 16:55:00
12:15 PM,90.0,72.3,56,30.05,10.0,East,3.5,-,N/A,Thunderstorm,Thunderstorm,90,2013-08-10 17:15:00
12:35 PM,77.9,73.8,87,30.07,5.0,SSE,8.1,17.3,0.01,Rain-Thunderstorm,Thunderstorms and Rain,150,2013-08-10 17:35:00
12:55 PM,75.9,72.3,89,30.07,4.0,SE,4.6,-,0.12,Rain-Thunderstorm,Heavy Thunderstorms and Rain,140,2013-08-10 17:55:00
1:15 PM,75.4,72.7,91,30.06,1.0,Calm,Calm,-,0.17,Rain-Thunderstorm,Heavy Thunderstorms and Rain,0,2013-08-10 18:15:00
1:35 PM,75.6,73.4,93,30.06,4.0,Calm,Calm,-,0.21,Rain-Thunderstorm,Thunderstorms and Rain,0,2013-08-10 18:35:00
1:55 PM,75.7,73.8,94,30.06,4.0,Calm,Calm,-,0.26,Rain-Thunderstorm,Thunderstorms and Rain,0,2013-08-10 18:55:00
2:15 PM,75.4,73.2,93,30.05,5.0,ESE,3.5,-,0.04,Rain-Thunderstorm,Light Thunderstorms and Rain,110,2013-08-10 19:15:00
2:35 PM,76.1,73.4,91,30.04,10.0,Calm,Calm,-,0.05,Rain,Light Rain,0,2013-08-10 19:35:00
2:55 PM,77.4,74.3,90,30.04,10.0,SSE,3.5,-,0.05,Rain,Light Rain,160,2013-08-10 19:55:00
3:15 PM,78.6,75.9,91,30.04,10.0,Calm,Calm,-,N/A,,Overcast,0,2013-08-10 20:15:00
3:35 PM,79.3,75.7,89,30.03,10.0,Calm,Calm,-,N/A,,Light Drizzle,0,2013-08-10 20:35:00
3:55 PM,79.7,75.9,88,30.03,10.0,South,3.5,-,N/A,Rain,Light Rain,190,2013-08-10 20:55:00
4:15 PM,80.4,76.3,87,30.02,10.0,WSW,3.5,-,N/A,,Mostly Cloudy,240,2013-08-10 21:15:00
4:35 PM,81.1,75.9,84,30.01,10.0,West,3.5,-,N/A,,Scattered Clouds,280,2013-08-10 21:35:00
4:55 PM,82.0,76.3,83,30.01,10.0,Calm,Calm,-,N/A,Thunderstorm,Clear,0,2013-08-10 21:55:00
5:15 PM,81.9,75.9,82,30.01,10.0,Calm,Calm,-,N/A,,Clear,0,2013-08-10 22:15:00
5:35 PM,82.0,76.3,83,30.02,10.0,West,5.8,-,N/A,,Clear,270,2013-08-10 22:35:00
5:55 PM,83.1,75.7,78,30.02,10.0,Calm,Calm,-,N/A,,Clear,0,2013-08-10 22:55:00
6:15 PM,83.5,75.7,77,30.01,10.0,Calm,Calm,-,N/A,,Clear,0,2013-08-10 23:15:00
6:35 PM,83.8,74.7,74,30.00,10.0,Calm,Calm,-,N/A,,Clear,0,2013-08-10 23:35:00
6:55 PM,83.1,75.2,77,29.99,10.0,Calm,Calm,-,N/A,,Clear,0,2013-08-10 23:55:00
7:15 PM,82.6,75.0,78,29.98,10.0,Calm,Calm,-,N/A,,Clear,0,2013-08-11 00:15:00
7:35 PM,81.0,75.7,84,29.99,10.0,Calm,Calm,-,N/A,,Clear,0,2013-08-11 00:35:00
7:55 PM,78.4,75.6,91,30.01,10.0,Calm,Calm,-,N/A,,Clear,0,2013-08-11 00:55:00
8:15 PM,77.4,75.6,94,30.02,10.0,Calm,Calm,-,N/A,,Clear,0,2013-08-11 01:15:00
8:35 PM,77.0,75.2,94,30.03,10.0,Calm,Calm,-,N/A,,Clear,0,2013-08-11 01:35:00
8:55 PM,76.3,74.8,95,30.04,7.0,Calm,Calm,-,N/A,,Clear,0,2013-08-11 01:55:00
9:15 PM,75.7,74.3,95,30.04,7.0,Calm,Calm,-,N/A,,Clear,0,2013-08-11 02:15:00
9:35 PM,75.4,74.1,96,30.04,7.0,Calm,Calm,-,N/A,,Clear,0,2013-08-11 02:35:00
9:55 PM,75.2,73.8,95,30.04,7.0,Calm,Calm,-,N/A,,Clear,0,2013-08-11 02:55:00
10:15 PM,75.0,73.6,95,30.05,7.0,Calm,Calm,-,N/A,,Clear,0,2013-08-11 03:15:00
10:35 PM,75.2,73.8,95,30.06,7.0,Calm,Calm,-,N/A,,Clear,0,2013-08-11 03:35:00
10:55 PM,75.0,73.8,96,30.06,5.0,Calm,Calm,-,N/A,,Clear,0,2013-08-11 03:55:00
11:15 PM,75.9,74.7,96,30.06,7.0,Calm,Calm,-,N/A,,Clear,0,2013-08-11 04:15:00
11:35 PM,75.6,74.3,96,30.05,5.0,Calm,Calm,-,N/A,,Clear,0,2013-08-11 04:35:00
11:55 PM,75.9,74.5,95,30.06,7.0,Calm,Calm,-,N/A,,Clear,0,2013-08-11 04:55:00